This is the latest recevied weather packets stored in our database for station/object K3MV-13. If no packets are shown the sender has not sent any weather packets the latest 10 day(s).
| Time | Temp. | Humidity | Pressure | Rain* | Wind** | Luminosity | Snow |
|---|---|---|---|---|---|---|---|
| 1777687109 | 5° C | 92% | 1013.7 hPa | 0 mm | - | 0 W/m² | - |
| 1777686807 | 5° C | 92% | 1013.6 hPa | 1.78 mm | - | 0 W/m² | - |
| 1777686504 | 5° C | 92% | 1013.6 hPa | 1.78 mm | - | 0 W/m² | - |
| 1777686201 | 5° C | 91% | 1013.3 hPa | 0 mm | - | 0 W/m² | - |
| 1777685897 | 5° C | 91% | 1013.4 hPa | 0 mm | - | 0 W/m² | - |
| 1777685593 | 5.56° C | 91% | 1013.3 hPa | 1.27 mm | - | 0 W/m² | - |
| 1777685289 | 6.11° C | 91% | 1013.4 hPa | 3.05 mm | - | 0 W/m² | - |
| 1777684987 | 6.11° C | 92% | 1012.9 hPa | 1.78 mm | - | 0 W/m² | - |
| 1777684684 | 6.11° C | 92% | 1012.7 hPa | 0 mm | - | 0 W/m² | - |
| 1777684380 | 6.11° C | 92% | 1012.4 hPa | 0 mm | - | 0 W/m² | - |
| 1777684078 | 6.11° C | 92% | 1012.4 hPa | 0 mm | - | 0 W/m² | - |
| 1777683773 | 6.11° C | 92% | 1012.3 hPa | 0 mm | - | 0 W/m² | - |
| 1777683471 | 6.11° C | 92% | 1012.1 hPa | 0 mm | - | 0 W/m² | - |
| 1777683169 | 6.11° C | 92% | 1012.2 hPa | 0 mm | - | 0 W/m² | - |
| 1777682865 | 6.11° C | 92% | 1012.1 hPa | 0 mm | - | 0 W/m² | - |
| 1777682562 | 6.11° C | 92% | 1012 hPa | 0 mm | - | 0 W/m² | - |
| 1777682259 | 6.11° C | 92% | 1012.1 hPa | 0 mm | - | 0 W/m² | - |
| 1777681957 | 6.11° C | 91% | 1011.8 hPa | 0 mm | - | 0 W/m² | - |
| 1777681652 | 6.11° C | 91% | 1011.7 hPa | 0 mm | - | 0 W/m² | - |
| 1777681350 | 6.11° C | 90% | 1011.8 hPa | 0 mm | - | 0 W/m² | - |
| 1777681047 | 6.11° C | 90% | 1011.6 hPa | 0 mm | - | 1 W/m² | - |
| 1777680745 | 6.11° C | 90% | 1011.7 hPa | 0 mm | - | 2 W/m² | - |
| 1777680442 | 6.11° C | 90% | 1011.7 hPa | 0 mm | - | 3 W/m² | - |
| 1777680140 | 6.67° C | 90% | 1011.8 hPa | 0 mm | - | 3 W/m² | - |
| 1777679835 | 6.11° C | 90% | 1011.8 hPa | 1.27 mm | - | 5 W/m² | - |
* Rain latest hour (hover to see other rain measurements)
** Current wind speed in m/s (hover to see current wind gust speed)